Weather History for Shawnee, OK

Change the Weather History Date:

Tuesday, December 3, 2013

  Actual Average (KTIK) Record (KTIK)
Temperature  
Mean Temperature 50 °F -  
Max Temperature 51 °F 52 °F 79 °F (2012)
Min Temperature 48 °F 34 °F 19 °F (2006)
Degree Days  
Heating Degree Days 16    
Moisture  
Dew Point 50 °F    
Average Humidity 100    
Maximum Humidity 100    
Minimum Humidity 100    
Precipitation  
Precipitation 0.00 in - - ()
Sea Level Pressure  
Sea Level Pressure 29.61 in    
Wind  
Wind Speed 5 mph (SSE)    
Max Wind Speed 7 mph    
Max Gust Speed -    
Averages and records for this station are not official NWS values.
T = Trace of Precipitation, MM = Missing Value Source: NWS Daily Summary

Daily Weather History Graph

Daily Weather History Graph

Search for Another Location

Airport:

Trip Planner

Search our weather history database for the weather conditions in past years. The results will help you decide how hot, cold, wet, or windy it might be!

Date:

Astronomy

Dec. 03, 2013 Rise Set
Actual Time 7:20 AM CST 5:15 PM CST
Civil Twilight 6:52 AM CST 5:43 PM CST
Nautical Twilight 6:20 AM CST 6:14 PM CST
Astronomical Twilight 5:50 AM CST 6:45 PM CST
Moon 7:51 AM CST (12/3) 6:19 PM CST (12/3)
Length of Visible Light 10h 50m
Length of Day
9h 54m
New Moon, 1% of the Moon is Illuminated
Dec 3
New Moon
Dec 9
First Quarter
Dec 17
Full
Dec 25
Last Quarter
Jan 1
New

Hourly Weather History & Observations

Time (CST) Temp. Dew Point Humidity Pressure Visibility Wind Dir Wind Speed Gust Speed Precip Events Conditions
12:15 AM 48.2 °F 48.2 °F 100% 29.66 in 0.5 mi South 4.6 mph - N/A Fog Fog
12:35 AM 48.2 °F 48.2 °F 100% 29.65 in 0.5 mi South 4.6 mph - N/A Fog Fog
12:55 AM 48.2 °F 48.2 °F 100% 29.64 in 0.5 mi South 4.6 mph - N/A Fog Fog
1:15 AM 48.2 °F 48.2 °F 100% 29.64 in 0.2 mi South 5.8 mph - N/A Fog Fog
1:35 AM 48.2 °F 48.2 °F 100% 29.63 in 0.5 mi South 4.6 mph - N/A Fog Fog
1:55 AM 48.2 °F 48.2 °F 100% 29.63 in 0.5 mi SSE 5.8 mph - N/A Fog Fog
2:15 AM 48.2 °F 48.2 °F 100% 29.63 in 0.5 mi South 4.6 mph - N/A Fog Fog
2:35 AM 48.2 °F 48.2 °F 100% 29.62 in 0.5 mi SSE 4.6 mph - N/A Fog Fog
2:55 AM 48.2 °F 48.2 °F 100% 29.62 in 0.5 mi South 5.8 mph - N/A Fog Fog
3:15 AM 50.0 °F 50.0 °F 100% 29.62 in 0.5 mi South 6.9 mph - N/A Fog Fog
3:35 AM 50.0 °F 50.0 °F 100% 29.61 in 0.5 mi SSE 5.8 mph - N/A Fog Fog
3:55 AM 51.8 °F 51.8 °F 100% 29.60 in 0.5 mi SSE 5.8 mph - N/A Fog Fog
4:15 AM 51.8 °F 51.8 °F 100% 29.60 in 0.5 mi South 3.5 mph - N/A Fog Fog
4:35 AM 51.8 °F 51.8 °F 100% 29.61 in 0.5 mi South 4.6 mph - N/A Fog Fog
4:55 AM 51.8 °F 51.8 °F 100% 29.60 in 0.5 mi South 5.8 mph - N/A Fog Fog
5:15 AM 51.8 °F 51.8 °F 100% 29.60 in 0.5 mi South 6.9 mph - N/A Fog Fog
5:35 AM 51.8 °F 51.8 °F 100% 29.60 in 0.2 mi SSE 5.8 mph - N/A Fog Fog
5:55 AM 51.8 °F 51.8 °F 100% 29.60 in 0.5 mi SSE 3.5 mph - N/A Fog Fog
6:15 AM 51.8 °F 51.8 °F 100% 29.60 in 0.5 mi SSE 5.8 mph - N/A Fog Fog
6:35 AM 51.8 °F 51.8 °F 100% 29.60 in 0.5 mi SE 4.6 mph - N/A Fog Fog
6:55 AM 51.8 °F 51.8 °F 100% 29.59 in 0.5 mi SSE 5.8 mph - N/A Fog Fog
7:15 AM 51.8 °F 51.8 °F 100% 29.59 in 0.8 mi SSE 5.8 mph - N/A   Overcast
7:35 AM 51.8 °F 51.8 °F 100% 29.60 in 0.5 mi SSE 3.5 mph - N/A Fog Fog
7:55 AM 51.8 °F 51.8 °F 100% 29.61 in 0.8 mi SE 4.6 mph - N/A   Overcast